FW3232 Weather Reports


Display with metric or nautical units.
time (UTC)temp
F
wind
direction
speed
MPH
gust
MPH
rain 1hr
in
rain 24hr
in
rain mn
in
humidity
%
barometer
mb
20260903035437 80 316 3.0 6.0 0.00 0.00 0.00 69 1017.1
20260903034937 80 307 2.0 4.0 0.00 0.00 0.00 68 1017.1
20260903034437 80 284 2.0 4.0 0.00 0.00 0.00 68 1017.1
20260903033937 80 300 2.0 4.0 0.00 0.00 0.00 67 1017.1
20260903033437 81 305 2.0 4.0 0.00 0.00 0.00 67 1017.1
20260903032938 81 281 1.0 6.0 0.00 0.00 0.00 66 1017.1
20260903032437 81 312 3.0 6.0 0.00 0.00 0.00 65 1017.1
20260903031937 82 317 3.0 6.0 0.00 0.00 0.00 65 1017.1
20260903031437 82 308 1.0 4.0 0.00 0.00 0.00 64 1017.1
20260903030937 82 313 2.0 5.0 0.00 0.00 0.00 64 1017.1
20260903030437 82 315 2.0 5.0 0.00 0.00 0.00 63 1017.1
20260903025938 83 313 2.0 4.0 0.00 0.00 0.00 62 1017.1
20260903025437 83 325 3.0 6.0 0.00 0.00 0.00 62 1017.1
20260903024450 83 321 2.0 5.0 0.00 0.00 0.00 60 1017.1
20260903023937 84 318 3.0 4.0 0.00 0.00 0.00 60 1017.1
20260903023437 84 293 1.0 4.0 0.00 0.00 0.00 59 1017.1
20260903022938 84 315 2.0 5.0 0.00 0.00 0.00 58 1017.1
20260903022437 85 317 2.0 4.0 0.00 0.00 0.00 58 1017.1
20260903021937 85 323 2.0 5.0 0.00 0.00 0.00 57 1017.1
20260903021440 85 327 3.0 5.0 0.00 0.00 0.00 57 1017.1
20260903020937 85 341 3.0 5.0 0.00 0.00 0.00 56 1017.1
20260903020437 85 312 1.0 5.0 0.00 0.00 0.00 56 1017.1
20260903015939 86 324 2.0 5.0 0.00 0.00 0.00 55 1017.1
20260903015438 86 289 2.0 4.0 0.00 0.00 0.00 54 1017.1
20260903014937 86 322 2.0 5.0 0.00 0.00 0.00 54 1017.1
20260903014437 86 323 2.0 6.0 0.00 0.00 0.00 54 1017.1
20260903013939 86 304 2.0 5.0 0.00 0.00 0.00 54 1017.1
20260903013438 86 335 2.0 5.0 0.00 0.00 0.00 53 1017.1
20260903012937 87 323 3.0 5.0 0.00 0.00 0.00 53 1017.1
20260903012437 87 316 2.0 6.0 0.00 0.00 0.00 52 1017.1
20260903011937 88 326 4.0 7.0 0.00 0.00 0.00 52 1017.1
20260903011438 89 323 3.0 7.0 0.00 0.00 0.00 51 1017.1
20260903010937 89 308 2.0 4.0 0.00 0.00 0.00 50 1017.1
20260903010437 89 313 1.0 4.0 0.00 0.00 0.00 49 1017.1
20260903005938 90 351 2.0 5.0 0.00 0.00 0.00 48 1017.1
20260903005437 90 266 2.0 5.0 0.00 0.00 0.00 48 1017.1
20260903004939 90 314 2.0 6.0 0.00 0.00 0.00 49 1017.1
20260903004437 91 314 2.0 7.0 0.00 0.00 0.00 48 1017.1
20260903003937 91 168 3.0 6.0 0.00 0.00 0.00 47 1017.1
20260903003437 91 176 3.0 6.0 0.00 0.00 0.00 47 1017.1
20260903002941 91 161 2.0 6.0 0.00 0.00 0.00 47 1017.1
20260903002437 92 278 2.0 6.0 0.00 0.00 0.00 46 1017.1
20260903001937 92 276 2.0 4.0 0.00 0.00 0.00 46 1017.1
20260903001437 92 313 2.0 4.0 0.00 0.00 0.00 46 1017.1
20260903000939 92 313 2.0 4.0 0.00 0.00 0.00 45 1017.1
20260903000439 92 302 1.0 4.0 0.00 0.00 0.00 45 1017.1
20260902235938 92 326 2.0 4.0 0.00 0.00 0.00 45 1017.1
20260902235437 92 274 2.0 5.0 0.00 0.00 0.00 45 1017.1
20260902234937 93 318 2.0 3.0 0.00 0.00 0.00 45 1017.1
20260902234437 93 279 2.0 3.0 0.00 0.00 0.00 43 1017.1
20260902233937 93 286 1.0 5.0 0.00 0.00 0.00 42 1017.1
20260902233437 94 305 2.0 5.0 0.00 0.00 0.00 42 1017.1
20260902232937 94 313 2.0 4.0 0.00 0.00 0.00 41 1017.1
20260902232437 94 203 2.0 4.0 0.00 0.00 0.00 41 1017.1
20260902231938 95 229 2.0 4.0 0.00 0.00 0.00 40 1017.1
20260902231437 95 222 2.0 5.0 0.00 0.00 0.00 40 1017.1
20260902230937 95 237 2.0 5.0 0.00 0.00 0.00 40 1017.1
20260902230438 95 270 2.0 5.0 0.00 0.00 0.00 40 1017.1
20260902225939 96 152 3.0 5.0 0.00 0.00 0.00 39 1017.1
20260902225437 96 249 2.0 5.0 0.00 0.00 0.00 39 1017.1
20260902224940 96 172 4.0 7.0 0.00 0.00 0.00 38 1017.1
20260902224438 96 257 2.0 5.0 0.00 0.00 0.00 37 1017.1
20260902223939 97 134 2.0 6.0 0.00 0.00 0.00 37 1017.1
20260902223437 98 127 2.0 9.0 0.00 0.00 0.00 36 1017.1
20260902222937 98 140 4.0 8.0 0.00 0.00 0.00 35 1017.1
20260902222438 99 188 4.0 10.0 0.00 0.00 0.00 34 1017.1
20260902221937 100 163 6.0 12.0 0.00 0.00 0.00 34 1017.1
20260902221437 101 156 8.0 12.0 0.00 0.00 0.00 32 1017.1
20260902220937 101 73 3.0 9.0 0.00 0.00 0.00 31 1017.1
20260902220437 100 136 4.0 9.0 0.00 0.00 0.00 32 1017.1
20260902215937 100 351 4.0 8.0 0.00 0.00 0.00 32 1017.1
20260902215437 99 138 4.0 8.0 0.00 0.00 0.00 31 1017.1
20260902214938 99 133 4.0 8.0 0.00 0.00 0.00 32 1017.1
20260902214438 99 152 6.0 7.0 0.00 0.00 0.00 33 1017.1
20260902213939 99 141 4.0 12.0 0.00 0.00 0.00 33 1017.1
20260902213437 100 157 7.0 9.0 0.00 0.00 0.00 32 1017.1
20260902212938 100 38 4.0 9.0 0.00 0.00 0.00 32 1017.1
20260902212437 101 167 4.0 7.0 0.00 0.00 0.00 32 1017.1
20260902211938 101 102 4.0 11.0 0.00 0.00 0.00 32 1017.1
20260902211438 101 159 4.0 9.0 0.00 0.00 0.00 32 1017.1
20260902210938 101 358 5.0 12.0 0.00 0.00 0.00 32 1017.1
20260902210437 102 344 3.0 10.0 0.00 0.00 0.00 32 1017.1
20260902205938 102 29 2.0 11.0 0.00 0.00 0.00 30 1017.1
20260902205437 102 7 4.0 10.0 0.00 0.00 0.00 30 1017.1
20260902204938 101 205 2.0 8.0 0.00 0.00 0.00 30 1017.1
20260902204438 101 236 5.0 8.0 0.00 0.00 0.00 31 1017.1
20260902203937 101 86 3.0 9.0 0.00 0.00 0.00 31 1017.1
20260902203438 101 146 6.0 9.0 0.00 0.00 0.00 31 1017.1
20260902202937 101 277 3.0 15.0 0.00 0.00 0.00 31 1017.1
20260902202438 100 72 2.0 9.0 0.00 0.00 0.00 32 1017.1
20260902201937 101 137 4.0 10.0 0.00 0.00 0.00 31 1017.1
20260902201439 101 17 3.0 10.0 0.00 0.00 0.00 32 1017.1
20260902200939 100 277 2.0 9.0 0.00 0.00 0.00 32 1017.1
20260902200437 100 170 4.0 8.0 0.00 0.00 0.00 33 1017.1
20260902195940 101 171 5.0 11.0 0.00 0.00 0.00 32 1017.1
20260902195437 101 359 3.0 9.0 0.00 0.00 0.00 31 1017.1
20260902194938 102 165 4.0 8.0 0.00 0.00 0.00 31 1017.1
20260902194438 101 352 3.0 10.0 0.00 0.00 0.00 30 1017.1
20260902193939 101 192 4.0 10.0 0.00 0.00 0.00 32 1017.1
20260902193439 100 314 3.0 4.0 0.00 0.00 0.00 33 1017.1
20260902192937 100 313 3.0 5.0 0.00 0.00 0.00 33 1017.1
20260902192438 99 313 4.0 8.0 0.00 0.00 0.00 34 1017.1
20260902191937 99 313 4.0 5.0 0.00 0.00 0.00 33 1017.1
20260902191437 99 314 3.0 5.0 0.00 0.00 0.00 33 1017.1
20260902190937 98 313 3.0 7.0 0.00 0.00 0.00 34 1017.1
20260902190437 100 313 4.0 7.0 0.00 0.00 0.00 33 1017.1
20260902185937 100 314 3.0 6.0 0.00 0.00 0.00 33 1017.1
20260902185437 100 315 4.0 8.0 0.00 0.00 0.00 33 1017.1
20260902184938 99 313 7.0 8.0 0.00 0.00 0.00 35 1017.1
20260902184437 98 312 6.0 9.0 0.00 0.00 0.00 36 1017.1
20260902183937 98 312 7.0 9.0 0.00 0.00 0.00 36 1017.1
20260902183437 98 312 7.0 11.0 0.00 0.00 0.00 35 1017.1
20260902182939 99 312 7.0 10.0 0.00 0.00 0.00 37 1017.1
20260902182437 99 311 5.0 10.0 0.00 0.00 0.00 35 1017.1
20260902181938 99 313 4.0 11.0 0.00 0.00 0.00 35 1017.1
20260902181439 99 312 4.0 9.0 0.00 0.00 0.00 36 1017.1
20260902180938 98 30 6.0 10.0 0.00 0.00 0.00 37 1017.1
20260902180440 98 2 6.0 10.0 0.00 0.00 0.00 39 1017.1
20260902175939 99 46 6.0 10.0 0.00 0.00 0.00 38 1017.1
20260902175438 100 43 6.0 10.0 0.00 0.00 0.00 35 1017.1
20260902174938 100 41 8.0 10.0 0.00 0.00 0.00 37 1017.1
20260902174437 100 39 6.0 9.0 0.00 0.00 0.00 36 1017.1
20260902173939 99 41 7.0 10.0 0.00 0.00 0.00 36 1017.1
20260902173437 97 44 6.0 9.0 0.00 0.00 0.00 39 1017.1
20260902172939 98 38 7.0 9.0 0.00 0.00 0.00 39 1017.1
20260902172437 98 39 7.0 9.0 0.00 0.00 0.00 37 1017.1
20260902171938 98 44 6.0 10.0 0.00 0.00 0.00 38 1017.1
20260902171438 97 28 6.0 9.0 0.00 0.00 0.00 39 1017.1
20260902170937 96 33 6.0 9.0 0.00 0.00 0.00 39 1017.1
20260902170437 97 231 3.0 9.0 0.00 0.00 0.00 39 1017.1
20260902165937 96 26 6.0 9.0 0.00 0.00 0.00 40 1017.1
20260902165438 96 154 4.0 7.0 0.00 0.00 0.00 40 1017.1
20260902164939 96 55 3.0 8.0 0.00 0.00 0.00 39 1017.1
20260902164438 95 259 4.0 8.0 0.00 0.00 0.00 40 1017.1
20260902163939 96 217 4.0 9.0 0.00 0.00 0.00 40 1017.1
20260902163438 96 139 3.0 9.0 0.00 0.00 0.00 41 1017.1
20260902162937 96 123 3.0 9.0 0.00 0.00 0.00 41 1017.1
20260902162437 96 140 4.0 7.0 0.00 0.00 0.00 42 1017.1
20260902161938 95 191 4.0 9.0 0.00 0.00 0.00 42 1017.1
20260902161437 95 175 4.0 9.0 0.00 0.00 0.00 42 1017.1
20260902160939 95 283 3.0 9.0 0.00 0.00 0.00 41 1017.1
20260902160437 94 139 5.0 8.0 0.00 0.00 0.00 43 1017.1
20260902155937 94 186 5.0 9.0 0.00 0.00 0.00 43 1017.1
20260902155438 94 248 5.0 9.0 0.00 0.00 0.00 45 1017.1
20260902154938 94 234 5.0 8.0 0.00 0.00 0.00 45 1017.1
20260902154437 93 312 4.0 9.0 0.00 0.00 0.00 46 1017.1
20260902153937 93 182 5.0 10.0 0.00 0.00 0.00 46 1017.1
20260902153437 92 162 4.0 11.0 0.00 0.00 0.00 48 1017.1
20260902152937 92 251 3.0 8.0 0.00 0.00 0.00 48 1017.1
20260902152438 91 173 5.0 9.0 0.00 0.00 0.00 51 1017.1
20260902151937 91 280 3.0 8.0 0.00 0.00 0.00 51 1017.1
20260902151437 91 263 2.0 7.0 0.00 0.00 0.00 53 1017.1
20260902150937 91 186 2.0 8.0 0.00 0.00 0.00 50 1017.1
20260902150437 91 258 3.0 6.0 0.00 0.00 0.00 51 1017.1
20260902145938 90 353 2.0 7.0 0.00 0.00 0.00 52 1017.1
20260902145438 89 185 4.0 9.0 0.00 0.00 0.00 54 1017.1
20260902144939 90 168 6.0 9.0 0.00 0.00 0.00 55 1017.1
20260902144438 89 198 4.0 6.0 0.00 0.00 0.00 55 1017.1
20260902143938 88 163 2.0 9.0 0.00 0.00 0.00 57 1017.1
20260902143438 87 251 3.0 7.0 0.00 0.00 0.00 57 1017.1
20260902142938 87 233 4.0 9.0 0.00 0.00 0.00 59 1017.1
20260902142437 87 240 3.0 8.0 0.00 0.00 0.00 59 1017.1
20260902141937 87 253 4.0 8.0 0.00 0.00 0.00 59 1017.1
20260902141437 86 279 3.0 8.0 0.00 0.00 0.00 59 1017.1
20260902140937 86 252 4.0 6.0 0.00 0.00 0.00 61 1017.1
20260902140437 85 264 3.0 5.0 0.00 0.00 0.00 62 1017.1
20260902135938 85 288 2.0 5.0 0.00 0.00 0.00 62 1017.1
20260902135437 85 259 4.0 6.0 0.00 0.00 0.00 64 1017.1
20260902132437 83 256 2.0 3.0 0.00 0.00 0.00 68 1017.1
20260902131937 83 274 2.0 3.0 0.00 0.00 0.00 68 1017.1
20260902131439 82 239 2.0 4.0 0.00 0.00 0.00 68 1017.1
20260902130938 82 262 2.0 5.0 0.00 0.00 0.00 69 1017.1
20260902130438 81 260 3.0 5.0 0.00 0.00 0.00 70 1017.1
20260902125938 81 306 2.0 5.0 0.00 0.00 0.00 71 1017.1
20260902125439 80 311 3.0 4.0 0.00 0.00 0.00 73 1017.1
20260902124940 79 294 1.0 3.0 0.00 0.00 0.00 74 1017.1
20260902124438 78 287 1.0 3.0 0.00 0.00 0.00 76 1017.1
20260902123937 76 303 1.0 3.0 0.00 0.00 0.00 82 1017.1
20260902123437 75 308 2.0 4.0 0.00 0.00 0.00 83 1017.1
20260902122937 74 312 1.0 4.0 0.00 0.00 0.00 83 1017.1
20260902122437 74 319 3.0 5.0 0.00 0.00 0.00 84 1017.1
20260902121937 73 320 4.0 4.0 0.00 0.00 0.00 85 1017.1
20260902121437 73 308 3.0 4.0 0.00 0.00 0.00 87 1017.1
20260902120938 72 287 1.0 4.0 0.00 0.00 0.00 87 1017.1
20260902120437 72 268 2.0 3.0 0.00 0.00 0.00 87 1017.1
20260902115937 72 286 1.0 4.0 0.00 0.00 0.00 88 1017.1
20260902115437 72 298 1.0 5.0 0.00 0.00 0.00 88 1017.1
20260902114937 72 313 2.0 3.0 0.00 0.00 0.00 87 1017.1
20260902114437 72 294 1.0 4.0 0.00 0.00 0.00 88 1017.1
20260902113939 72 320 4.0 4.0 0.00 0.00 0.00 88 1017.1
20260902113437 72 301 2.0 4.0 0.00 0.00 0.00 88 1017.1
20260902112937 72 306 3.0 4.0 0.00 0.00 0.00 88 1017.1
20260902112438 72 311 2.0 4.0 0.00 0.00 0.00 87 1017.1
20260902111937 72 306 2.0 5.0 0.00 0.00 0.00 87 1017.1
20260902111437 72 314 3.0 4.0 0.00 0.00 0.00 87 1016.8
20260902110937 72 313 2.0 5.0 0.00 0.00 0.00 88 1016.8
20260902110438 72 313 4.0 5.0 0.00 0.00 0.00 87 1016.8
20260902105937 72 301 1.0 5.0 0.00 0.00 0.00 87 1016.8
20260902105437 72 316 4.0 4.0 0.00 0.00 0.00 87 1016.8
20260902104939 72 290 2.0 5.0 0.00 0.00 0.00 87 1016.8
20260902104438 72 309 3.0 5.0 0.00 0.00 0.00 87 1016.8
20260902103938 72 297 2.0 5.0 0.00 0.00 0.00 87 1016.8
20260902103438 72 313 2.0 6.0 0.00 0.00 0.00 87 1016.8
20260902102937 72 312 3.0 4.0 0.00 0.00 0.00 87 1016.8
20260902102438 72 308 0.0 4.0 0.00 0.00 0.00 86 1016.8
20260902101938 72 273 2.0 3.0 0.00 0.00 0.00 86 1016.8
20260902101437 72 291 1.0 3.0 0.00 0.00 0.00 85 1016.8
20260902100937 73 320 1.0 3.0 0.00 0.00 0.00 85 1016.8
20260902100437 72 303 2.0 5.0 0.00 0.00 0.00 85 1016.7
20260902095937 72 325 4.0 6.0 0.00 0.00 0.00 85 1016.7
20260902095437 72 316 4.0 5.0 0.00 0.00 0.00 85 1016.7
20260902094939 72 307 1.0 5.0 0.00 0.00 0.00 85 1016.7
20260902094438 73 319 3.0 5.0 0.00 0.00 0.00 85 1016.7
20260902093937 73 296 2.0 3.0 0.00 0.00 0.00 84 1016.7
20260902093437 73 248 1.0 4.0 0.00 0.00 0.00 84 1016.7
20260902092937 73 298 1.0 5.0 0.00 0.00 0.00 84 1016.7
20260902092438 73 316 4.0 4.0 0.00 0.00 0.00 84 1016.7
20260902091938 73 307 3.0 5.0 0.00 0.00 0.00 84 1016.7
20260902091437 73 312 2.0 3.0 0.00 0.00 0.00 84 1016.7
20260902090937 73 272 1.0 3.0 0.00 0.00 0.00 84 1016.7
20260902090439 73 304 2.0 3.0 0.00 0.00 0.00 84 1016.7
20260902085937 73 297 1.0 2.0 0.00 0.00 0.00 83 1016.7
20260902085437 73 281 0.0 4.0 0.00 0.00 0.00 83 1016.7
20260902084937 73 291 2.0 4.0 0.00 0.00 0.00 83 1016.7
20260902084438 73 314 2.0 4.0 0.00 0.00 0.00 82 1016.7
20260902083938 73 310 2.0 4.0 0.00 0.00 0.00 81 1016.7
20260902083437 73 326 3.0 5.0 0.00 0.00 0.00 82 1016.7
20260902082937 73 315 3.0 4.0 0.00 0.00 0.00 82 1016.7
20260902082437 73 320 3.0 4.0 0.00 0.00 0.00 82 1016.7
20260902081937 73 317 1.0 3.0 0.00 0.00 0.00 81 1016.7
20260902081437 74 290 0.0 5.0 0.00 0.00 0.00 81 1016.7
20260902080938 74 310 3.0 4.0 0.00 0.00 0.00 81 1016.7
20260902080437 74 283 2.0 4.0 0.00 0.00 0.00 81 1016.7
20260902075938 74 288 1.0 4.0 0.00 0.00 0.00 80 1016.7
20260902075437 74 316 4.0 4.0 0.00 0.00 0.00 80 1016.7
20260902074937 74 318 3.0 6.0 0.00 0.00 0.00 80 1016.7
20260902074437 74 307 2.0 5.0 0.00 0.00 0.00 80 1016.7
20260902073937 74 324 3.0 5.0 0.00 0.00 0.00 80 1016.7
20260902073438 74 318 4.0 4.0 0.00 0.00 0.00 80 1016.7
20260902072937 74 313 3.0 5.0 0.00 0.00 0.00 79 1016.7
20260902072437 74 317 3.0 4.0 0.00 0.00 0.00 79 1016.7
20260902071937 74 311 1.0 4.0 0.00 0.00 0.00 78 1016.7
20260902071438 74 312 2.0 4.0 0.00 0.00 0.00 77 1016.7
20260902070937 74 300 3.0 4.0 0.00 0.00 0.00 78 1016.7
20260902070438 74 308 2.0 4.0 0.00 0.00 0.00 78 1016.7
20260902065938 74 321 3.0 4.0 0.00 0.00 0.00 78 1016.7
20260902065438 75 281 3.0 4.0 0.00 0.00 0.00 77 1016.7
20260902064938 75 323 3.0 5.0 0.00 0.00 0.00 77 1016.7
20260902064437 75 315 3.0 4.0 0.00 0.00 0.00 77 1016.7
20260902063938 75 318 2.0 4.0 0.00 0.00 0.00 77 1016.7
20260902063438 75 310 3.0 4.0 0.00 0.00 0.00 76 1016.7
20260902062937 75 315 2.0 4.0 0.00 0.00 0.00 76 1016.7
20260902062441 75 315 3.0 4.0 0.00 0.00 0.00 76 1016.7
20260902061937 75 303 2.0 5.0 0.00 0.00 0.00 76 1013.5
20260902061437 75 309 1.0 4.0 0.00 0.00 0.00 75 1013.5
20260902060938 75 315 3.0 5.0 0.00 0.00 0.00 75 1013.5
20260902060437 75 300 2.0 5.0 0.00 0.00 0.00 75 1013.5
20260902055937 75 314 3.0 6.0 0.00 0.00 0.00 75 1013.5
20260902055438 75 313 2.0 5.0 0.00 0.00 0.00 75 1013.5
20260902054937 75 307 2.0 4.0 0.00 0.00 0.00 74 1013.5
20260902054438 76 266 2.0 4.0 0.00 0.00 0.00 74 1013.5
20260902053940 76 306 2.0 5.0 0.00 0.00 0.00 74 1013.5
20260902053437 76 313 3.0 5.0 0.00 0.00 0.00 73 1013.5
20260902052938 76 319 4.0 5.0 0.00 0.00 0.00 73 1013.5
20260902052437 76 314 2.0 6.0 0.00 0.00 0.00 73 1013.5
20260902051937 76 315 3.0 6.0 0.00 0.00 0.00 72 1013.5
20260902051438 76 320 3.0 4.0 0.00 0.00 0.00 72 1013.5
20260902050938 76 320 3.0 5.0 0.00 0.00 0.00 73 1013.5
20260902050438 76 323 3.0 5.0 0.00 0.00 0.00 72 1013.5
20260902045937 76 303 2.0 4.0 0.00 0.00 0.00 72 1013.5
20260902045437 76 313 2.0 5.0 0.00 0.00 0.00 72 1013.5
20260902044937 76 329 3.0 5.0 0.00 0.00 0.00 72 1013.5
20260902044437 77 281 2.0 3.0 0.00 0.00 0.00 71 1013.5
20260902043937 77 289 1.0 4.0 0.00 0.00 0.00 70 1013.5
20260902043438 77 314 3.0 4.0 0.00 0.00 0.00 70 1013.5
20260902042938 77 312 2.0 5.0 0.00 0.00 0.00 70 1013.5
20260902042437 77 321 3.0 5.0 0.00 0.00 0.00 69 1013.5
20260902041937 78 322 3.0 5.0 0.00 0.00 0.00 69 1013.5
20260902041437 78 311 1.0 5.0 0.00 0.00 0.00 68 1013.5
20260902040937 78 320 4.0 5.0 0.00 0.00 0.00 68 1013.5
20260902040437 78 322 3.0 5.0 0.00 0.00 0.00 67 1013.5
20260902035938 78 307 2.0 4.0 0.00 0.00 0.00 66 1013.5